Weather History for Three Rivers, MI

Change the Weather History Date:

Sunday, February 14, 2010

  Actual Average Record
Temperature  
Mean Temperature 28 °F -  
Max Temperature 32 °F 34 °F 59 °F (1990)
Min Temperature 21 °F 16 °F -5 °F (1970)
Degree Days  
Heating Degree Days 37    
Moisture  
Dew Point 19 °F    
Average Humidity 68    
Maximum Humidity 93    
Minimum Humidity 44    
Precipitation  
Precipitation 0.00 in - - ()
Sea Level Pressure  
Sea Level Pressure 29.82 in    
Wind  
Wind Speed 7 mph (WSW)    
Max Wind Speed 14 mph    
Max Gust Speed 17 mph    
Visibility 10 miles    
Events      
Averages and records for this station are not official NWS values.
T = Trace of Precipitation, MM = Missing Value Source: NWS Daily Summary

Daily Weather History Graph

Daily Weather History Graph

Search for Another Location

Airport:

Trip Planner

Search our weather history database for the weather conditions in past years. The results will help you decide how hot, cold, wet, or windy it might be!

Date:

Astronomy

Feb. 14, 2010 Rise Set
Actual Time 7:39 AM EST 6:14 PM EST
Civil Twilight 7:10 AM EST 6:42 PM EST
Nautical Twilight 6:38 AM EST 7:15 PM EST
Astronomical Twilight 6:05 AM EST 7:47 PM EST
Moon 7:39 AM EST (2/14) 7:05 PM EST (2/14)
Length of Visible Light 11h 31m
Length of Day
10h 34m
New Moon, 0% of the Moon is Illuminated
Feb 14
New Moon
Feb 21
First Quarter
Feb 28
Full
Mar 7
Last Quarter
Mar 15
New

Hourly Weather History & Observations

Time (EST) Temp. Windchill Dew Point Humidity Pressure Visibility Wind Dir Wind Speed Gust Speed Precip Events Conditions
12:17 AM 30.2 °F 23.4 °F 26.6 °F 86% 29.85 in 10.0 mi West 6.9 mph - N/A   Overcast
12:36 AM 30.2 °F 23.4 °F 26.6 °F 86% 29.86 in 10.0 mi West 6.9 mph - N/A   Overcast
12:55 AM 30.2 °F 24.3 °F 26.6 °F 86% 29.87 in 10.0 mi West 5.8 mph - N/A   Overcast
1:17 AM 30.2 °F 22.6 °F 26.6 °F 86% 29.86 in 10.0 mi West 8.1 mph - N/A   Overcast
1:36 AM 30.2 °F 23.4 °F 26.6 °F 86% 29.86 in 10.0 mi West 6.9 mph - N/A   Overcast
1:55 AM 30.2 °F 23.4 °F 26.6 °F 86% 29.85 in 10.0 mi West 6.9 mph - N/A   Overcast
2:16 AM 28.4 °F 23.3 °F 26.6 °F 93% 29.85 in 10.0 mi WSW 4.6 mph - N/A   Overcast
2:36 AM 30.2 °F 25.4 °F 26.6 °F 86% 29.85 in 10.0 mi WSW 4.6 mph - N/A   Overcast
2:55 AM 30.2 °F 25.4 °F 24.8 °F 80% 29.85 in 10.0 mi WSW 4.6 mph - N/A   Overcast
3:16 AM 28.4 °F 21.2 °F 24.8 °F 86% 29.85 in 10.0 mi WSW 6.9 mph - N/A   Overcast
3:36 AM 28.4 °F 23.3 °F 24.8 °F 86% 29.85 in 10.0 mi WSW 4.6 mph - N/A   Overcast
3:55 AM 28.4 °F 21.2 °F 23.0 °F 80% 29.84 in 10.0 mi WSW 6.9 mph - N/A   Overcast
4:16 AM 28.4 °F 21.2 °F 23.0 °F 80% 29.84 in 10.0 mi SW 6.9 mph - N/A   Overcast
4:36 AM 28.4 °F 22.2 °F 23.0 °F 80% 29.84 in 10.0 mi WSW 5.8 mph - N/A   Overcast
4:55 AM 28.4 °F 21.2 °F 21.2 °F 74% 29.84 in 10.0 mi SW 6.9 mph - N/A   Overcast
5:16 AM 28.4 °F 22.2 °F 21.2 °F 74% 29.84 in 10.0 mi WSW 5.8 mph - N/A   Overcast
5:36 AM 28.4 °F 22.2 °F 21.2 °F 74% 29.84 in 10.0 mi WSW 5.8 mph - N/A   Overcast
5:55 AM 26.6 °F 20.0 °F 21.2 °F 80% 29.84 in 10.0 mi WSW 5.8 mph - N/A   Overcast
6:16 AM 26.6 °F 18.2 °F 19.4 °F 74% 29.84 in 10.0 mi WSW 8.1 mph - N/A   Overcast
6:36 AM 26.6 °F 20.0 °F 19.4 °F 74% 29.84 in 10.0 mi WSW 5.8 mph - N/A   Overcast
6:55 AM 26.6 °F 20.0 °F 19.4 °F 74% 29.84 in 10.0 mi WSW 5.8 mph - N/A   Overcast
7:16 AM 26.6 °F 21.2 °F 19.4 °F 74% 29.84 in 10.0 mi WSW 4.6 mph - N/A   Overcast
7:36 AM 26.6 °F 18.2 °F 19.4 °F 74% 29.84 in 10.0 mi WSW 8.1 mph - N/A   Overcast
7:55 AM 26.6 °F 20.0 °F 19.4 °F 74% 29.84 in 10.0 mi WSW 5.8 mph - N/A   Overcast
8:16 AM 26.6 °F 19.1 °F 19.4 °F 74% 29.84 in 10.0 mi WSW 6.9 mph - N/A   Overcast
8:36 AM 26.6 °F 21.2 °F 19.4 °F 74% 29.84 in 10.0 mi WSW 4.6 mph - N/A   Overcast
8:55 AM 26.6 °F 20.0 °F 19.4 °F 74% 29.84 in 10.0 mi SW 5.8 mph - N/A   Overcast
9:16 AM 26.6 °F 19.1 °F 19.4 °F 74% 29.84 in 10.0 mi SW 6.9 mph - N/A   Overcast
9:36 AM 26.6 °F 20.0 °F 17.6 °F 69% 29.84 in 10.0 mi SW 5.8 mph - N/A   Overcast
9:55 AM 26.6 °F 20.0 °F 17.6 °F 69% 29.83 in 10.0 mi SW 5.8 mph - N/A   Overcast
10:16 AM 26.6 °F 20.0 °F 15.8 °F 64% 29.83 in 10.0 mi SW 5.8 mph - N/A   Mostly Cloudy
10:36 AM 26.6 °F 19.1 °F 15.8 °F 64% 29.82 in 10.0 mi SW 6.9 mph - N/A   Scattered Clouds
10:55 AM 28.4 °F 22.2 °F 17.6 °F 64% 29.82 in 7.0 mi SW 5.8 mph - N/A   Clear
11:16 AM 28.4 °F 20.4 °F 15.8 °F 59% 29.82 in 10.0 mi SW 8.1 mph - N/A   Clear
11:36 AM 28.4 °F 20.4 °F 17.6 °F 64% 29.82 in 10.0 mi SW 8.1 mph - N/A   Clear
11:55 AM 30.2 °F 21.9 °F 12.2 °F 47% 29.82 in 10.0 mi WSW 9.2 mph 17.3 mph N/A   Scattered Clouds
12:16 PM 30.2 °F 19.8 °F 12.2 °F 47% 29.81 in 10.0 mi West 13.8 mph - N/A   Scattered Clouds
12:36 PM 30.2 °F 21.3 °F 12.2 °F 47% 29.81 in 10.0 mi WSW 10.4 mph - N/A   Scattered Clouds
12:55 PM 30.2 °F 21.9 °F 10.4 °F 44% 29.80 in 10.0 mi SW 9.2 mph 16.1 mph N/A   Clear
1:16 PM 32.0 °F 23.6 °F 12.2 °F 44% 29.79 in 10.0 mi WSW 10.4 mph - N/A   Clear
1:36 PM 32.0 °F 23.0 °F 12.2 °F 44% 29.79 in 10.0 mi SW 11.5 mph 17.3 mph N/A   Scattered Clouds
1:55 PM 32.0 °F 24.8 °F 12.2 °F 44% 29.79 in 10.0 mi WSW 8.1 mph - N/A   Mostly Cloudy
2:16 PM 32.0 °F 23.6 °F 12.2 °F 44% 29.78 in 10.0 mi WSW 10.4 mph - N/A   Scattered Clouds
2:36 PM 32.0 °F 23.6 °F 12.2 °F 44% 29.78 in 10.0 mi West 10.4 mph - N/A   Mostly Cloudy
2:55 PM 32.0 °F 25.6 °F 14.0 °F 48% 29.77 in 10.0 mi WSW 6.9 mph - N/A   Overcast
3:16 PM 32.0 °F 24.8 °F 14.0 °F 48% 29.77 in 10.0 mi WSW 8.1 mph - N/A   Scattered Clouds
3:36 PM 32.0 °F 22.5 °F 15.8 °F 51% 29.77 in 10.0 mi West 12.7 mph - N/A   Mostly Cloudy
3:55 PM 32.0 °F 23.6 °F 17.6 °F 55% 29.78 in 10.0 mi West 10.4 mph - N/A   Scattered Clouds
4:16 PM 32.0 °F 23.0 °F 17.6 °F 55% 29.78 in 10.0 mi West 11.5 mph - N/A   Clear
4:36 PM 30.2 °F 21.3 °F 17.6 °F 60% 29.78 in 10.0 mi West 10.4 mph - N/A   Clear
4:55 PM 30.2 °F 21.3 °F 15.8 °F 55% 29.78 in 10.0 mi WSW 10.4 mph - N/A   Clear
5:16 PM 30.2 °F 22.6 °F 17.6 °F 60% 29.78 in 10.0 mi WSW 8.1 mph - N/A   Clear
5:36 PM 28.4 °F 19.7 °F 17.6 °F 64% 29.79 in 10.0 mi West 9.2 mph - N/A   Clear
5:55 PM 28.4 °F 21.2 °F 17.6 °F 64% 29.79 in 10.0 mi WNW 6.9 mph - N/A   Clear
6:16 PM 26.6 °F 20.0 °F 17.6 °F 69% 29.80 in 10.0 mi WNW 5.8 mph - N/A   Clear
6:36 PM 24.8 °F 17.9 °F 17.6 °F 74% 29.80 in 10.0 mi NW 5.8 mph - N/A   Clear
6:55 PM 24.8 °F 19.1 °F 17.6 °F 74% 29.80 in 10.0 mi WNW 4.6 mph - N/A   Clear
7:16 PM 21.2 °F 13.6 °F 15.8 °F 80% 29.81 in 10.0 mi West 5.8 mph - N/A   Clear
7:36 PM 23.0 °F 18.4 °F 17.6 °F 80% 29.81 in 10.0 mi West 3.5 mph - N/A   Clear
7:55 PM 23.0 °F - 17.6 °F 80% 29.81 in 10.0 mi Calm Calm - N/A   Clear
8:16 PM 19.4 °F - 14.0 °F 80% 29.81 in 10.0 mi Calm Calm - N/A   Clear
8:36 PM 19.4 °F - 17.6 °F 93% 29.80 in 10.0 mi Calm Calm - N/A   Clear
8:55 PM 19.4 °F - 17.6 °F 93% 29.81 in 7.0 mi Calm Calm - N/A   Clear
9:16 PM 19.4 °F - 17.6 °F 93% 29.81 in 7.0 mi Calm Calm - N/A   Clear
9:36 PM 17.6 °F 9.3 °F 15.8 °F 93% 29.81 in 3.0 mi South 5.8 mph - N/A   Clear
9:55 PM 17.6 °F 10.7 °F 15.8 °F 93% 29.81 in 7.0 mi SSW 4.6 mph - N/A   Clear
10:16 PM 15.8 °F 10.2 °F 14.0 °F 93% 29.81 in 5.0 mi SSW 3.5 mph - N/A   Clear
10:36 PM 17.6 °F 12.3 °F 15.8 °F 93% 29.81 in 5.0 mi South 3.5 mph - N/A   Clear
10:55 PM 15.8 °F - 14.0 °F 93% 29.80 in 4.0 mi Calm Calm - N/A   Clear
11:16 PM 12.2 °F - 10.4 °F 92% 29.80 in 3.0 mi Calm Calm - N/A   Clear
11:36 PM 12.2 °F - 12.2 °F 100% 29.80 in 3.0 mi Calm Calm - N/A   Clear
11:55 PM 12.2 °F 6.1 °F 10.4 °F 92% 29.80 in 0.5 mi South 3.5 mph - N/A Fog Light Freezing Fog